User: anonymous   Login
Location: *
(45.1961°N, 1.9694°E)
Time: 10:19:17
(UTC+00:00)
Language:

ASTEX 1 - Orbit

View from above orbital plane
View from above orbital plane
View from above satellite
View from above satellite

Ground track
Ground track

The orbit data is extracted from the following two-line orbital elements,

1  5560U 71089A   19288.92689691 +.00000070 +00000-0 +19123-4 0  9996
2  5560 092.7108 117.8722 0017613 041.6659 318.5884 14.48034838523990
Epoch (UTC): 15 October 2019 22:14:43
Eccentricity: 0.0017613
inclination: 92.7108°
perigee height: 719 km
apogee height: 744 km
right ascension of ascending node: 117.8722°
argument of perigee: 41.6659°
revolutions per day: 14.48034838
mean anomaly at epoch: 318.5884°
orbit number at epoch: 52399

The dashed part of the orbit path shows where the satellite is in the earth's shadow,  

DLR